Location: Selkirk
(50.1500°N, 96.8830°W)
Time: 14:20:29
(UTC-06:00)

OTV 5 (USA 277) - Visible Passes

Search period start: 18 February 2018 00:00
Search period end: 28 February 2018 00:00
Orbit: 404 x 417 km, 43.0° (Epoch: 07 September)

Date Brightness Start Highest point End Pass type
(mag) Time Alt. Az. Time Alt. Az. Time Alt. Az.
21 Feb ? 06:43:15 10° SSW 06:45:12 15° SSE 06:47:09 10° SE visible
22 Feb ? 05:53:04 10° S 05:54:21 12° SSE 05:55:37 10° SE visible
23 Feb ? 06:37:30 10° SW 06:40:01 20° S 06:42:33 10° ESE visible
24 Feb ? 05:47:30 13° SSW 05:49:08 18° SSE 05:51:26 10° ESE visible
25 Feb ? 04:58:49 14° SSE 04:58:49 14° SSE 05:00:11 10° SE visible
25 Feb ? 06:32:12 10° SW 06:34:54 23° S 06:37:36 10° ESE visible
26 Feb ? 05:42:52 19° SSW 05:43:59 22° S 05:46:37 10° ESE visible
27 Feb ? 04:54:08 18° SE 04:54:08 18° SE 04:55:35 10° ESE visible
27 Feb ? 06:27:10 10° WSW 06:29:48 22° S 06:32:25 10° SE visible
